Time,TemperatureF,DewpointF,PressureIn,WindDirection,WindDirectionDegrees,WindSpeedMPH,WindSpeedGustMPH,Humidity,HourlyPrecipIn,Conditions,Clouds,dailyrainin,SoftwareType,DateUTC
2013-01-07 00:00:00,34.9,27.5,29.94,West,267,1.0,7.0,74,0.00,,,0.00,WeatherCatV1.10B1784,2013-01-07 05:00:00,
2013-01-07 00:05:00,35.1,27.7,29.94,WNW,286,5.0,10.0,74,0.00,,,0.00,WeatherCatV1.10B1784,2013-01-07 05:05:00,
2013-01-07 00:10:00,35.2,27.8,29.94,WSW,257,3.0,5.0,74,0.00,,,0.00,WeatherCatV1.10B1784,2013-01-07 05:10:00,
2013-01-07 00:15:00,35.1,27.7,29.94,WSW,257,3.0,4.0,74,0.00,,,0.00,WeatherCatV1.10B1784,2013-01-07 05:15:00,
2013-01-07 00:20:00,35.1,27.7,29.94,West,273,2.0,6.0,74,0.00,,,0.00,WeatherCatV1.10B1784,2013-01-07 05:20:00,
2013-01-07 00:25:00,35.0,27.6,29.94,West,271,5.0,6.0,74,0.00,,,0.00,WeatherCatV1.10B1784,2013-01-07 05:25:00,
2013-01-07 00:30:00,35.2,27.8,29.94,West,280,3.0,4.0,74,0.00,,,0.00,WeatherCatV1.10B1784,2013-01-07 05:30:00,
2013-01-07 00:35:00,35.5,28.0,29.94,West,277,2.0,7.0,74,0.00,,,0.00,WeatherCatV1.10B1784,2013-01-07 05:35:00,
2013-01-07 00:40:00,35.6,27.8,29.94,WSW,246,4.0,8.0,73,0.00,,,0.00,WeatherCatV1.10B1784,2013-01-07 05:40:00,
2013-01-07 00:45:00,35.6,27.8,29.94,WSW,245,3.0,3.0,73,0.00,,,0.00,WeatherCatV1.10B1784,2013-01-07 05:45:00,
2013-01-07 00:50:00,35.6,27.8,29.94,WSW,257,2.0,3.0,73,0.00,,,0.00,WeatherCatV1.10B1784,2013-01-07 05:50:00,
2013-01-07 00:55:00,35.7,27.9,29.94,SW,223,0.0,8.0,73,0.00,,,0.00,WeatherCatV1.10B1784,2013-01-07 05:55:00,
2013-01-07 01:00:00,35.7,27.9,29.94,WNW,295,0.0,4.0,73,0.00,,,0.00,WeatherCatV1.10B1784,2013-01-07 06:00:00,
2013-01-07 01:05:00,35.6,27.8,29.95,WNW,293,0.0,5.0,73,0.00,,,0.00,WeatherCatV1.10B1784,2013-01-07 06:05:00,
2013-01-07 01:10:00,35.5,27.7,29.95,West,274,0.0,7.0,73,0.00,,,0.00,WeatherCatV1.10B1784,2013-01-07 06:10:00,
2013-01-07 01:15:00,35.6,27.8,29.95,WNW,282,4.0,5.0,73,0.00,,,0.00,WeatherCatV1.10B1784,2013-01-07 06:15:00,
2013-01-07 01:20:00,35.5,27.7,29.95,WSW,257,4.0,8.0,73,0.00,,,0.00,WeatherCatV1.10B1784,2013-01-07 06:20:00,
2013-01-07 01:25:00,35.5,27.7,29.95,SW,230,7.0,7.0,73,0.00,,,0.00,WeatherCatV1.10B1784,2013-01-07 06:25:00,
2013-01-07 01:30:00,35.5,28.0,29.95,WNW,283,5.0,9.0,74,0.00,,,0.00,WeatherCatV1.10B1784,2013-01-07 06:30:00,
2013-01-07 01:35:00,35.5,28.0,29.96,SW,227,6.0,11.0,74,0.00,,,0.00,WeatherCatV1.10B1784,2013-01-07 06:35:00,
2013-01-07 01:40:00,35.5,27.7,29.96,West,279,1.0,7.0,73,0.00,,,0.00,WeatherCatV1.10B1784,2013-01-07 06:40:00,
2013-01-07 01:45:00,35.5,28.0,29.96,West,274,3.0,4.0,74,0.00,,,0.00,WeatherCatV1.10B1784,2013-01-07 06:45:00,
2013-01-07 01:50:00,35.5,28.0,29.96,West,278,3.0,6.0,74,0.00,,,0.00,WeatherCatV1.10B1784,2013-01-07 06:50:00,
2013-01-07 01:55:00,35.5,28.0,29.96,WNW,296,4.0,9.0,74,0.00,,,0.00,WeatherCatV1.10B1784,2013-01-07 06:55:00,
2013-01-07 02:00:00,35.7,28.2,29.96,WNW,297,5.0,6.0,74,0.00,,,0.00,WeatherCatV1.10B1784,2013-01-07 07:00:00,
2013-01-07 02:05:00,35.7,28.2,29.97,WSW,257,2.0,11.0,74,0.00,,,0.00,WeatherCatV1.10B1784,2013-01-07 07:05:00,
2013-01-07 02:10:00,35.7,28.2,29.96,West,272,5.0,8.0,74,0.00,,,0.00,WeatherCatV1.10B1784,2013-01-07 07:10:00,
2013-01-07 02:15:00,35.7,28.2,29.97,West,274,0.0,10.0,74,0.00,,,0.00,WeatherCatV1.10B1784,2013-01-07 07:15:00,
2013-01-07 02:20:00,35.7,28.2,29.97,WSW,246,3.0,14.0,74,0.00,,,0.00,WeatherCatV1.10B1784,2013-01-07 07:20:00,
2013-01-07 02:25:00,35.7,28.2,29.97,West,280,0.0,6.0,74,0.00,,,0.00,WeatherCatV1.10B1784,2013-01-07 07:25:00,
2013-01-07 02:30:00,35.7,28.6,29.97,WNW,288,4.0,4.0,75,0.00,,,0.00,WeatherCatV1.10B1784,2013-01-07 07:30:00,
2013-01-07 02:35:00,35.6,28.5,29.97,WNW,284,0.0,4.0,75,0.00,,,0.00,WeatherCatV1.10B1784,2013-01-07 07:35:00,
2013-01-07 02:40:00,35.5,28.7,29.97,WNW,283,1.0,3.0,76,0.00,,,0.00,WeatherCatV1.10B1784,2013-01-07 07:40:00,
2013-01-07 02:45:00,35.6,28.8,29.97,West,273,0.0,3.0,76,0.00,,,0.00,WeatherCatV1.10B1784,2013-01-07 07:45:00,
2013-01-07 02:50:00,35.6,28.8,29.97,WSW,253,3.0,7.0,76,0.00,,,0.00,WeatherCatV1.10B1784,2013-01-07 07:50:00,
2013-01-07 02:55:00,35.5,28.7,29.97,WSW,257,0.0,4.0,76,0.00,,,0.00,WeatherCatV1.10B1784,2013-01-07 07:55:00,
2013-01-07 03:00:00,35.4,28.6,29.97,West,262,0.0,4.0,76,0.00,,,0.00,WeatherCatV1.10B1784,2013-01-07 08:00:00,
2013-01-07 03:05:00,35.3,28.5,29.98,West,262,0.0,0.0,76,0.00,,,0.00,WeatherCatV1.10B1784,2013-01-07 08:05:00,
2013-01-07 03:10:00,35.0,28.2,29.98,West,262,0.0,3.0,76,0.00,,,0.00,WeatherCatV1.10B1784,2013-01-07 08:10:00,
2013-01-07 03:15:00,35.1,28.3,29.98,West,262,0.0,1.0,76,0.00,,,0.00,WeatherCatV1.10B1784,2013-01-07 08:15:00,
2013-01-07 03:20:00,34.8,28.0,29.98,South,169,0.0,1.0,76,0.00,,,0.00,WeatherCatV1.10B1784,2013-01-07 08:20:00,
2013-01-07 03:25:00,34.2,28.1,29.98,South,177,1.0,3.0,78,0.00,,,0.00,WeatherCatV1.10B1784,2013-01-07 08:25:00,
2013-01-07 03:30:00,33.8,27.7,29.98,ESE,119,2.0,2.0,78,0.00,,,0.00,WeatherCatV1.10B1784,2013-01-07 08:30:00,
2013-01-07 03:35:00,33.4,27.9,29.99,ESE,116,0.0,0.0,80,0.00,,,0.00,WeatherCatV1.10B1784,2013-01-07 08:35:00,
2013-01-07 03:40:00,33.5,28.0,29.99,ESE,120,0.0,0.0,80,0.00,,,0.00,WeatherCatV1.10B1784,2013-01-07 08:40:00,
2013-01-07 03:45:00,33.8,28.3,29.99,NW,310,2.0,8.0,80,0.00,,,0.00,WeatherCatV1.10B1784,2013-01-07 08:45:00,
2013-01-07 03:50:00,34.4,28.6,29.99,West,273,4.0,5.0,79,0.00,,,0.00,WeatherCatV1.10B1784,2013-01-07 08:50:00,
2013-01-07 03:55:00,34.5,28.7,29.99,WSW,257,2.0,4.0,79,0.00,,,0.00,WeatherCatV1.10B1784,2013-01-07 08:55:00,
2013-01-07 04:00:00,34.7,28.9,29.99,West,273,4.0,10.0,79,0.00,,,0.00,WeatherCatV1.10B1784,2013-01-07 09:00:00,
2013-01-07 04:05:00,34.8,29.0,29.99,West,280,0.0,4.0,79,0.00,,,0.00,WeatherCatV1.10B1784,2013-01-07 09:05:00,
2013-01-07 04:10:00,34.6,28.8,30.00,West,279,1.0,4.0,79,0.00,,,0.00,WeatherCatV1.10B1784,2013-01-07 09:10:00,
2013-01-07 04:15:00,34.6,28.8,30.00,West,267,2.0,7.0,79,0.00,,,0.00,WeatherCatV1.10B1784,2013-01-07 09:15:00,
2013-01-07 04:20:00,34.6,28.8,30.00,NW,305,0.0,6.0,79,0.00,,,0.00,WeatherCatV1.10B1784,2013-01-07 09:20:00,
2013-01-07 04:25:00,34.6,28.8,30.00,WNW,294,3.0,4.0,79,0.00,,,0.00,WeatherCatV1.10B1784,2013-01-07 09:25:00,
2013-01-07 04:30:00,34.5,28.7,30.00,WNW,296,0.0,1.0,79,0.00,,,0.00,WeatherCatV1.10B1784,2013-01-07 09:30:00,
2013-01-07 04:35:00,34.5,28.7,30.01,NW,316,0.0,3.0,79,0.00,,,0.00,WeatherCatV1.10B1784,2013-01-07 09:35:00,
2013-01-07 04:40:00,34.6,28.8,30.01,NW,314,2.0,3.0,79,0.00,,,0.00,WeatherCatV1.10B1784,2013-01-07 09:40:00,
2013-01-07 04:45:00,34.6,28.8,30.01,NW,314,1.0,2.0,79,0.00,,,0.00,WeatherCatV1.10B1784,2013-01-07 09:45:00,
2013-01-07 04:50:00,34.6,29.1,30.02,NW,315,3.0,3.0,80,0.00,,,0.00,WeatherCatV1.10B1784,2013-01-07 09:50:00,
2013-01-07 04:55:00,34.7,28.9,30.02,NW,315,0.0,3.0,79,0.00,,,0.00,WeatherCatV1.10B1784,2013-01-07 09:55:00,
2013-01-07 05:00:00,34.8,29.0,30.02,NW,315,1.0,3.0,79,0.00,,,0.00,WeatherCatV1.10B1784,2013-01-07 10:00:00,
2013-01-07 05:05:00,35.0,29.2,30.02,NW,314,0.0,3.0,79,0.00,,,0.00,WeatherCatV1.10B1784,2013-01-07 10:05:00,
2013-01-07 05:10:00,35.1,29.3,30.02,NW,312,2.0,3.0,79,0.00,,,0.00,WeatherCatV1.10B1784,2013-01-07 10:10:00,
2013-01-07 05:15:00,35.3,29.5,30.02,NW,312,0.0,2.0,79,0.00,,,0.00,WeatherCatV1.10B1784,2013-01-07 10:15:00,
2013-01-07 05:20:00,35.5,29.3,30.02,NW,312,2.0,3.0,78,0.00,,,0.00,WeatherCatV1.10B1784,2013-01-07 10:20:00,
2013-01-07 05:25:00,35.6,29.4,30.02,NW,312,2.0,4.0,78,0.00,,,0.00,WeatherCatV1.10B1784,2013-01-07 10:25:00,
2013-01-07 05:30:00,35.6,29.4,30.02,WNW,289,2.0,7.0,78,0.00,,,0.00,WeatherCatV1.10B1784,2013-01-07 10:30:00,
2013-01-07 05:35:00,35.6,29.4,30.02,WNW,290,3.0,4.0,78,0.00,,,0.00,WeatherCatV1.10B1784,2013-01-07 10:35:00,
2013-01-07 05:40:00,35.5,29.3,30.03,WNW,292,1.0,5.0,78,0.00,,,0.00,WeatherCatV1.10B1784,2013-01-07 10:40:00,
2013-01-07 05:45:00,35.3,29.5,30.03,WNW,286,3.0,7.0,79,0.00,,,0.00,WeatherCatV1.10B1784,2013-01-07 10:45:00,
2013-01-07 05:50:00,35.1,29.3,30.04,WNW,286,4.0,4.0,79,0.00,,,0.00,WeatherCatV1.10B1784,2013-01-07 10:50:00,
2013-01-07 05:55:00,35.0,29.2,30.04,WNW,285,1.0,5.0,79,0.00,,,0.00,WeatherCatV1.10B1784,2013-01-07 10:55:00,
2013-01-07 06:00:00,34.8,29.0,30.05,WNW,285,2.0,3.0,79,0.00,,,0.00,WeatherCatV1.10B1784,2013-01-07 11:00:00,
2013-01-07 06:05:00,34.7,29.2,30.05,WNW,286,0.0,4.0,80,0.00,,,0.00,WeatherCatV1.10B1784,2013-01-07 11:05:00,
2013-01-07 06:10:00,34.6,29.1,30.05,WNW,286,0.0,4.0,80,0.00,,,0.00,WeatherCatV1.10B1784,2013-01-07 11:10:00,
2013-01-07 06:15:00,34.6,29.1,30.06,WNW,290,0.0,3.0,80,0.00,,,0.00,WeatherCatV1.10B1784,2013-01-07 11:15:00,
2013-01-07 06:20:00,34.5,29.0,30.06,WNW,291,0.0,2.0,80,0.00,,,0.00,WeatherCatV1.10B1784,2013-01-07 11:20:00,
2013-01-07 06:25:00,34.4,28.9,30.07,WNW,291,2.0,4.0,80,0.00,,,0.00,WeatherCatV1.10B1784,2013-01-07 11:25:00,
2013-01-07 06:30:00,34.3,28.8,30.07,WNW,291,2.0,2.0,80,0.00,,,0.00,WeatherCatV1.10B1784,2013-01-07 11:30:00,
2013-01-07 06:35:00,34.2,29.0,30.07,WNW,291,2.0,3.0,81,0.00,,,0.00,WeatherCatV1.10B1784,2013-01-07 11:35:00,
2013-01-07 06:40:00,34.2,29.0,30.08,WNW,291,2.0,6.0,81,0.00,,,0.00,WeatherCatV1.10B1784,2013-01-07 11:40:00,
2013-01-07 06:45:00,34.1,28.9,30.08,WNW,291,0.0,4.0,81,0.00,,,0.00,WeatherCatV1.10B1784,2013-01-07 11:45:00,
2013-01-07 06:50:00,33.9,28.7,30.08,WNW,291,4.0,4.0,81,0.00,,,0.00,WeatherCatV1.10B1784,2013-01-07 11:50:00,
2013-01-07 06:55:00,33.9,28.7,30.08,WNW,291,1.0,5.0,81,0.00,,,0.00,WeatherCatV1.10B1784,2013-01-07 11:55:00,
2013-01-07 07:00:00,33.8,28.6,30.09,WNW,291,1.0,3.0,81,0.00,,,0.00,WeatherCatV1.10B1784,2013-01-07 12:00:00,
2013-01-07 07:05:00,33.5,28.3,30.09,WNW,291,0.0,1.0,81,0.00,,,0.00,WeatherCatV1.10B1784,2013-01-07 12:05:00,
2013-01-07 07:10:00,33.5,28.6,30.10,WNW,291,1.0,5.0,82,0.00,,,0.00,WeatherCatV1.10B1784,2013-01-07 12:10:00,
2013-01-07 07:15:00,33.4,28.5,30.10,WNW,291,0.0,1.0,82,0.00,,,0.00,WeatherCatV1.10B1784,2013-01-07 12:15:00,
2013-01-07 07:20:00,33.3,28.4,30.10,WNW,291,0.0,2.0,82,0.00,,,0.00,WeatherCatV1.10B1784,2013-01-07 12:20:00,
2013-01-07 07:25:00,33.4,28.5,30.10,WNW,296,2.0,3.0,82,0.00,,,0.00,WeatherCatV1.10B1784,2013-01-07 12:25:00,
2013-01-07 07:30:00,33.4,28.5,30.10,WNW,296,0.0,6.0,82,0.00,,,0.00,WeatherCatV1.10B1784,2013-01-07 12:30:00,
2013-01-07 07:35:00,33.4,28.2,30.10,WNW,296,1.0,5.0,81,0.00,,,0.00,WeatherCatV1.10B1784,2013-01-07 12:35:00,
2013-01-07 07:40:00,33.5,28.0,30.11,WNW,296,0.0,0.0,80,0.00,,,0.00,WeatherCatV1.10B1784,2013-01-07 12:40:00,
2013-01-07 07:45:00,33.4,27.9,30.11,WNW,296,0.0,2.0,80,0.00,,,0.00,WeatherCatV1.10B1784,2013-01-07 12:45:00,
2013-01-07 07:50:00,33.4,27.6,30.12,WNW,296,1.0,2.0,79,0.00,,,0.00,WeatherCatV1.10B1784,2013-01-07 12:50:00,
2013-01-07 07:55:00,33.3,27.5,30.12,WNW,296,0.0,3.0,79,0.00,,,0.00,WeatherCatV1.10B1784,2013-01-07 12:55:00,
2013-01-07 08:00:00,33.2,27.1,30.13,WNW,296,1.0,5.0,78,0.00,,,0.00,WeatherCatV1.10B1784,2013-01-07 13:00:00,
2013-01-07 08:05:00,33.3,27.2,30.13,WNW,296,1.0,2.0,78,0.00,,,0.00,WeatherCatV1.10B1784,2013-01-07 13:05:00,
2013-01-07 08:10:00,33.3,26.9,30.14,WNW,296,0.0,2.0,77,0.00,,,0.00,WeatherCatV1.10B1784,2013-01-07 13:10:00,
2013-01-07 08:15:00,33.4,27.0,30.14,WNW,296,0.0,0.0,77,0.00,,,0.00,WeatherCatV1.10B1784,2013-01-07 13:15:00,
2013-01-07 08:20:00,33.4,26.7,30.15,WNW,296,0.0,3.0,76,0.00,,,0.00,WeatherCatV1.10B1784,2013-01-07 13:20:00,
2013-01-07 08:25:00,33.3,26.6,30.15,NW,325,2.0,7.0,76,0.00,,,0.00,WeatherCatV1.10B1784,2013-01-07 13:25:00,
2013-01-07 08:30:00,33.3,26.6,30.16,NW,326,1.0,1.0,76,0.00,,,0.00,WeatherCatV1.10B1784,2013-01-07 13:30:00,
2013-01-07 08:35:00,33.2,26.5,30.16,NW,326,2.0,4.0,76,0.00,,,0.00,WeatherCatV1.10B1784,2013-01-07 13:35:00,
2013-01-07 08:40:00,33.2,26.1,30.17,NW,307,5.0,6.0,75,0.00,,,0.00,WeatherCatV1.10B1784,2013-01-07 13:40:00,
2013-01-07 08:45:00,33.2,26.1,30.16,WNW,288,3.0,8.0,75,0.00,,,0.00,WeatherCatV1.10B1784,2013-01-07 13:45:00,
2013-01-07 08:50:00,33.2,26.1,30.17,NW,316,4.0,6.0,75,0.00,,,0.00,WeatherCatV1.10B1784,2013-01-07 13:50:00,
2013-01-07 08:55:00,33.3,25.9,30.18,NNW,339,4.0,7.0,74,0.00,,,0.00,WeatherCatV1.10B1784,2013-01-07 13:55:00,
2013-01-07 09:00:00,33.3,25.9,30.18,NW,310,3.0,6.0,74,0.00,,,0.00,WeatherCatV1.10B1784,2013-01-07 14:00:00,
2013-01-07 09:05:00,33.4,26.0,30.18,WNW,283,2.0,8.0,74,0.00,,,0.00,WeatherCatV1.10B1784,2013-01-07 14:05:00,
2013-01-07 09:10:00,33.4,26.0,30.19,NNE,20,5.0,5.0,74,0.00,,,0.00,WeatherCatV1.10B1784,2013-01-07 14:10:00,
2013-01-07 09:15:00,33.5,25.8,30.19,North,8,2.0,7.0,73,0.00,,,0.00,WeatherCatV1.10B1784,2013-01-07 14:15:00,
2013-01-07 09:20:00,33.7,26.0,30.20,North,5,1.0,4.0,73,0.00,,,0.00,WeatherCatV1.10B1784,2013-01-07 14:20:00,
2013-01-07 09:25:00,34.0,25.9,30.21,North,3,6.0,7.0,72,0.00,,,0.00,WeatherCatV1.10B1784,2013-01-07 14:25:00,
2013-01-07 09:29:00,34.1,26.0,30.21,North,1,1.0,3.0,72,0.00,,,0.00,WeatherCatV1.10B1784,2013-01-07 14:29:00,
2013-01-07 09:34:00,34.2,26.1,30.21,North,2,1.0,7.0,72,0.00,,,0.00,WeatherCatV1.10B1784,2013-01-07 14:34:00,
2013-01-07 09:39:00,34.1,25.7,30.22,North,2,6.0,7.0,71,0.00,,,0.00,WeatherCatV1.10B1784,2013-01-07 14:39:00,
2013-01-07 09:44:00,34.2,25.8,30.22,North,0,5.0,7.0,71,0.00,,,0.00,WeatherCatV1.10B1784,2013-01-07 14:44:00,
2013-01-07 09:49:00,34.2,25.1,30.22,North,3,9.0,9.0,69,0.00,,,0.00,WeatherCatV1.10B1784,2013-01-07 14:49:00,
2013-01-07 09:54:00,34.1,25.0,30.23,North,0,6.0,9.0,69,0.00,,,0.00,WeatherCatV1.10B1784,2013-01-07 14:54:00,
2013-01-07 09:59:00,34.1,25.4,30.23,North,0,5.0,5.0,70,0.00,,,0.00,WeatherCatV1.10B1784,2013-01-07 14:59:00,
2013-01-07 10:04:00,34.2,25.1,30.23,North,3,6.0,6.0,69,0.00,,,0.00,WeatherCatV1.10B1784,2013-01-07 15:04:00,
2013-01-07 10:09:00,34.3,25.2,30.23,North,5,2.0,4.0,69,0.00,,,0.00,WeatherCatV1.10B1784,2013-01-07 15:09:00,
2013-01-07 10:14:00,34.3,25.2,30.23,North,4,1.0,3.0,69,0.00,,,0.00,WeatherCatV1.10B1784,2013-01-07 15:14:00,
2013-01-07 10:19:00,34.5,25.0,30.23,North,4,3.0,5.0,68,0.00,,,0.00,WeatherCatV1.10B1784,2013-01-07 15:19:00,
2013-01-07 10:24:00,34.4,25.0,30.23,North,5,4.0,7.0,68,0.00,,,0.00,WeatherCatV1.10B1784,2013-01-07 15:24:00,
2013-01-07 10:29:00,34.4,25.3,30.23,North,5,0.0,4.0,69,0.00,,,0.00,WeatherCatV1.10B1784,2013-01-07 15:29:00,
2013-01-07 10:34:00,34.8,25.3,30.23,North,5,3.0,4.0,68,0.00,,,0.00,WeatherCatV1.10B1784,2013-01-07 15:34:00,
2013-01-07 10:39:00,34.5,24.7,30.24,North,5,2.0,4.0,67,0.00,,,0.00,WeatherCatV1.10B1784,2013-01-07 15:39:00,
2013-01-07 10:44:00,34.3,24.9,30.24,North,3,3.0,5.0,68,0.00,,,0.00,WeatherCatV1.10B1784,2013-01-07 15:44:00,
2013-01-07 10:49:00,34.4,24.6,30.24,North,356,3.0,7.0,67,0.00,,,0.00,WeatherCatV1.10B1784,2013-01-07 15:49:00,
2013-01-07 10:54:00,34.3,24.1,30.24,North,350,0.0,5.0,66,0.00,,,0.00,WeatherCatV1.10B1784,2013-01-07 15:54:00,
2013-01-07 10:59:00,34.6,24.1,30.24,North,350,5.0,5.0,65,0.00,,,0.00,WeatherCatV1.10B1784,2013-01-07 15:59:00,
2013-01-07 11:04:00,34.7,24.2,30.24,North,350,0.0,5.0,65,0.00,,,0.00,WeatherCatV1.10B1784,2013-01-07 16:04:00,
2013-01-07 11:09:00,34.8,23.9,30.25,North,349,2.0,6.0,64,0.00,,,0.00,WeatherCatV1.10B1784,2013-01-07 16:09:00,
2013-01-07 11:14:00,35.0,24.4,30.24,NNW,331,7.0,7.0,65,0.00,,,0.00,WeatherCatV1.10B1784,2013-01-07 16:14:00,
2013-01-07 11:19:00,34.8,23.5,30.24,WNW,295,2.0,5.0,63,0.00,,,0.00,WeatherCatV1.10B1784,2013-01-07 16:19:00,
2013-01-07 11:24:00,34.6,23.3,30.25,NW,320,3.0,7.0,63,0.00,,,0.00,WeatherCatV1.10B1784,2013-01-07 16:24:00,
2013-01-07 11:29:00,34.7,23.8,30.25,WSW,257,1.0,2.0,64,0.00,,,0.00,WeatherCatV1.10B1784,2013-01-07 16:29:00,
2013-01-07 11:34:00,34.8,23.5,30.25,West,267,2.0,5.0,63,0.00,,,0.00,WeatherCatV1.10B1784,2013-01-07 16:34:00,
2013-01-07 11:39:00,34.8,23.5,30.25,West,281,1.0,2.0,63,0.00,,,0.00,WeatherCatV1.10B1784,2013-01-07 16:39:00,
2013-01-07 11:44:00,34.9,24.0,30.25,West,279,3.0,3.0,64,0.00,,,0.00,WeatherCatV1.10B1784,2013-01-07 16:44:00,
2013-01-07 11:49:00,34.7,23.0,30.25,WNW,298,3.0,5.0,62,0.00,,,0.00,WeatherCatV1.10B1784,2013-01-07 16:49:00,
2013-01-07 11:54:00,34.5,23.2,30.25,NW,306,1.0,4.0,63,0.00,,,0.00,WeatherCatV1.10B1784,2013-01-07 16:54:00,
2013-01-07 11:59:00,34.5,22.8,30.25,NW,316,1.0,6.0,62,0.00,,,0.00,WeatherCatV1.10B1784,2013-01-07 16:59:00,
2013-01-07 12:04:00,34.6,22.6,30.25,NW,315,0.0,2.0,61,0.00,,,0.00,WeatherCatV1.10B1784,2013-01-07 17:04:00,
2013-01-07 12:09:00,34.6,22.9,30.25,NW,308,1.0,5.0,62,0.00,,,0.00,WeatherCatV1.10B1784,2013-01-07 17:09:00,
2013-01-07 12:14:00,34.6,22.6,30.25,NW,325,0.0,7.0,61,0.00,,,0.00,WeatherCatV1.10B1784,2013-01-07 17:14:00,
2013-01-07 12:19:00,34.4,22.7,30.25,NW,320,2.0,5.0,62,0.00,,,0.00,WeatherCatV1.10B1784,2013-01-07 17:19:00,
2013-01-07 12:24:00,34.3,22.3,30.25,NNW,332,2.0,7.0,61,0.00,,,0.00,WeatherCatV1.10B1784,2013-01-07 17:24:00,
2013-01-07 12:29:00,34.1,22.1,30.25,NNW,334,0.0,2.0,61,0.00,,,0.00,WeatherCatV1.10B1784,2013-01-07 17:29:00,
2013-01-07 12:34:00,34.4,22.4,30.25,NNW,327,2.0,7.0,61,0.00,,,0.00,WeatherCatV1.10B1784,2013-01-07 17:34:00,
2013-01-07 12:39:00,34.6,22.2,30.25,NW,311,1.0,5.0,60,0.00,,,0.00,WeatherCatV1.10B1784,2013-01-07 17:39:00,
2013-01-07 12:44:00,34.8,22.0,30.26,NW,311,2.0,4.0,59,0.00,,,0.00,WeatherCatV1.10B1784,2013-01-07 17:44:00,
2013-01-07 12:49:00,34.8,22.0,30.26,NW,304,1.0,2.0,59,0.00,,,0.00,WeatherCatV1.10B1784,2013-01-07 17:49:00,
2013-01-07 12:54:00,34.9,21.6,30.26,NW,304,2.0,3.0,58,0.00,,,0.00,WeatherCatV1.10B1784,2013-01-07 17:54:00,
2013-01-07 12:59:00,34.9,21.2,30.26,WNW,303,2.0,2.0,57,0.00,,,0.00,WeatherCatV1.10B1784,2013-01-07 17:59:00,
2013-01-07 13:04:00,35.1,21.4,30.26,NW,310,2.0,6.0,57,0.00,,,0.00,WeatherCatV1.10B1784,2013-01-07 18:04:00,
2013-01-07 13:09:00,34.5,20.4,30.26,NW,315,1.0,5.0,56,0.00,,,0.00,WeatherCatV1.10B1784,2013-01-07 18:09:00,
2013-01-07 13:14:00,34.4,20.8,30.26,NW,315,3.0,4.0,57,0.00,,,0.00,WeatherCatV1.10B1784,2013-01-07 18:14:00,
2013-01-07 13:19:00,34.3,20.7,30.26,NW,315,0.0,3.0,57,0.00,,,0.00,WeatherCatV1.10B1784,2013-01-07 18:19:00,
2013-01-07 13:24:00,34.2,20.6,30.26,NW,315,0.0,3.0,57,0.00,,,0.00,WeatherCatV1.10B1784,2013-01-07 18:24:00,
2013-01-07 13:29:00,34.5,20.0,30.27,NW,315,1.0,3.0,55,0.00,,,0.00,WeatherCatV1.10B1784,2013-01-07 18:29:00,
2013-01-07 13:34:00,34.7,19.8,30.27,NW,315,2.0,3.0,54,0.00,,,0.00,WeatherCatV1.10B1784,2013-01-07 18:34:00,
2013-01-07 13:39:00,35.0,20.5,30.27,NW,315,0.0,2.0,55,0.00,,,0.00,WeatherCatV1.10B1784,2013-01-07 18:39:00,
2013-01-07 13:44:00,35.3,20.8,30.27,NW,315,0.0,1.0,55,0.00,,,0.00,WeatherCatV1.10B1784,2013-01-07 18:44:00,
2013-01-07 13:49:00,35.6,20.2,30.27,NW,311,0.0,3.0,53,0.00,,,0.00,WeatherCatV1.10B1784,2013-01-07 18:49:00,
2013-01-07 13:54:00,35.6,20.6,30.28,NW,306,0.0,2.0,54,0.00,,,0.00,WeatherCatV1.10B1784,2013-01-07 18:54:00,
2013-01-07 13:59:00,35.7,20.3,30.28,NW,306,0.0,0.0,53,0.00,,,0.00,WeatherCatV1.10B1784,2013-01-07 18:59:00,
2013-01-07 14:04:00,36.0,19.2,30.28,NW,306,0.0,3.0,50,0.00,,,0.00,WeatherCatV1.10B1784,2013-01-07 19:04:00,
2013-01-07 14:09:00,36.1,18.8,30.28,NW,306,0.0,3.0,49,0.00,,,0.00,WeatherCatV1.10B1784,2013-01-07 19:09:00,
2013-01-07 14:14:00,35.8,19.0,30.29,NW,306,2.0,4.0,50,0.00,,,0.00,WeatherCatV1.10B1784,2013-01-07 19:14:00,
2013-01-07 14:19:00,35.5,18.7,30.29,NW,306,1.0,3.0,50,0.00,,,0.00,WeatherCatV1.10B1784,2013-01-07 19:19:00,
2013-01-07 14:24:00,35.2,18.4,30.29,NW,306,1.0,3.0,50,0.00,,,0.00,WeatherCatV1.10B1784,2013-01-07 19:24:00,
2013-01-07 14:29:00,35.1,18.4,30.29,NW,306,0.0,3.0,50,0.00,,,0.00,WeatherCatV1.10B1784,2013-01-07 19:29:00,
2013-01-07 14:34:00,35.2,17.5,30.29,NW,306,0.0,1.0,48,0.00,,,0.00,WeatherCatV1.10B1784,2013-01-07 19:34:00,
2013-01-07 14:39:00,35.9,18.6,30.30,NW,306,2.0,2.0,49,0.00,,,0.00,WeatherCatV1.10B1784,2013-01-07 19:39:00,
2013-01-07 14:44:00,35.6,17.9,30.30,NW,306,1.0,2.0,48,0.00,,,0.01,WeatherCatV1.10B1784,2013-01-07 19:44:00,
2013-01-07 14:49:00,35.3,17.1,30.30,NW,306,1.0,2.0,47,0.00,,,0.01,WeatherCatV1.10B1784,2013-01-07 19:49:00,
2013-01-07 14:54:00,35.0,16.8,30.30,NW,306,0.0,2.0,47,0.00,,,0.01,WeatherCatV1.10B1784,2013-01-07 19:54:00,
2013-01-07 14:59:00,34.8,16.6,30.30,NW,306,1.0,2.0,47,0.00,,,0.01,WeatherCatV1.10B1784,2013-01-07 19:59:00,
2013-01-07 15:04:00,34.8,16.2,30.30,NW,306,2.0,3.0,46,0.00,,,0.01,WeatherCatV1.10B1784,2013-01-07 20:04:00,
2013-01-07 15:09:00,34.6,16.0,30.31,NW,306,2.0,3.0,46,0.00,,,0.01,WeatherCatV1.10B1784,2013-01-07 20:09:00,
2013-01-07 15:14:00,34.7,16.6,30.30,NW,306,2.0,2.0,47,0.00,,,0.01,WeatherCatV1.10B1784,2013-01-07 20:14:00,
2013-01-07 15:19:00,34.6,16.0,30.30,NW,306,0.0,0.0,46,0.00,,,0.01,WeatherCatV1.10B1784,2013-01-07 20:19:00,
2013-01-07 15:24:00,34.6,16.0,30.30,NW,306,0.0,2.0,46,0.00,,,0.01,WeatherCatV1.10B1784,2013-01-07 20:24:00,
2013-01-07 15:29:00,34.9,16.7,30.30,NW,306,0.0,2.0,47,0.00,,,0.01,WeatherCatV1.10B1784,2013-01-07 20:29:00,
2013-01-07 15:34:00,34.7,15.6,30.31,NW,306,0.0,0.0,45,0.00,,,0.01,WeatherCatV1.10B1784,2013-01-07 20:34:00,
2013-01-07 15:39:00,34.3,16.2,30.31,NW,306,0.0,0.0,47,0.00,,,0.01,WeatherCatV1.10B1784,2013-01-07 20:39:00,
2013-01-07 15:44:00,34.5,15.9,30.31,NW,306,0.0,0.0,46,0.00,,,0.01,WeatherCatV1.10B1784,2013-01-07 20:44:00,
2013-01-07 15:49:00,35.5,17.3,30.31,NW,306,0.0,0.0,47,0.00,,,0.02,WeatherCatV1.10B1784,2013-01-07 20:49:00,
2013-01-07 15:54:00,35.7,17.0,30.32,NW,306,0.0,0.0,46,0.00,,,0.02,WeatherCatV1.10B1784,2013-01-07 20:54:00,
2013-01-07 15:59:00,35.5,16.3,30.32,NW,306,0.0,0.0,45,0.00,,,0.02,WeatherCatV1.10B1784,2013-01-07 20:59:00,
2013-01-07 16:04:00,34.6,15.5,30.32,NW,306,0.0,1.0,45,0.00,,,0.02,WeatherCatV1.10B1784,2013-01-07 21:04:00,
2013-01-07 16:09:00,33.7,16.1,30.32,NW,306,0.0,0.0,48,0.00,,,0.02,WeatherCatV1.10B1784,2013-01-07 21:09:00,
2013-01-07 16:14:00,32.9,18.1,30.32,NW,306,0.0,0.0,54,0.00,,,0.02,WeatherCatV1.10B1784,2013-01-07 21:14:00,
2013-01-07 16:19:00,32.1,16.0,30.32,NW,306,0.0,0.0,51,0.00,,,0.02,WeatherCatV1.10B1784,2013-01-07 21:19:00,
2013-01-07 16:24:00,31.3,15.3,30.33,NW,306,0.0,0.0,51,0.00,,,0.02,WeatherCatV1.10B1784,2013-01-07 21:24:00,
2013-01-07 16:29:00,30.8,16.6,30.33,NW,306,0.0,0.0,55,0.00,,,0.02,WeatherCatV1.10B1784,2013-01-07 21:29:00,
2013-01-07 16:34:00,30.2,16.8,30.33,NW,306,0.0,0.0,57,0.00,,,0.02,WeatherCatV1.10B1784,2013-01-07 21:34:00,
2013-01-07 16:39:00,29.7,16.8,30.33,NW,306,0.0,0.0,58,0.00,,,0.02,WeatherCatV1.10B1784,2013-01-07 21:39:00,
2013-01-07 16:44:00,29.2,17.1,30.33,NW,306,0.0,0.0,60,0.00,,,0.02,WeatherCatV1.10B1784,2013-01-07 21:44:00,
2013-01-07 16:49:00,28.7,17.4,30.33,NW,306,0.0,0.0,62,0.00,,,0.02,WeatherCatV1.10B1784,2013-01-07 21:49:00,
2013-01-07 16:54:00,28.4,15.5,30.33,NW,306,0.0,0.0,58,0.00,,,0.02,WeatherCatV1.10B1784,2013-01-07 21:54:00,
2013-01-07 16:59:00,28.4,15.5,30.33,NW,306,0.0,0.0,58,0.00,,,0.02,WeatherCatV1.10B1784,2013-01-07 21:59:00,
2013-01-07 17:04:00,28.1,16.8,30.34,NW,306,0.0,0.0,62,0.00,,,0.02,WeatherCatV1.10B1784,2013-01-07 22:04:00,
2013-01-07 17:09:00,27.6,15.9,30.34,NW,306,0.0,0.0,61,0.00,,,0.02,WeatherCatV1.10B1784,2013-01-07 22:09:00,
2013-01-07 17:14:00,27.4,15.7,30.34,NW,306,0.0,0.0,61,0.00,,,0.02,WeatherCatV1.10B1784,2013-01-07 22:14:00,
2013-01-07 17:19:00,27.1,15.8,30.34,NW,306,0.0,0.0,62,0.00,,,0.02,WeatherCatV1.10B1784,2013-01-07 22:19:00,
2013-01-07 17:24:00,26.8,15.2,30.34,NW,306,0.0,0.0,61,0.00,,,0.02,WeatherCatV1.10B1784,2013-01-07 22:24:00,
2013-01-07 17:29:00,26.9,14.9,30.34,NW,306,0.0,0.0,60,0.00,,,0.02,WeatherCatV1.10B1784,2013-01-07 22:29:00,
2013-01-07 17:34:00,26.6,15.0,30.34,NW,306,0.0,0.0,61,0.00,,,0.02,WeatherCatV1.10B1784,2013-01-07 22:34:00,
2013-01-07 17:39:00,26.7,15.5,30.34,NW,306,0.0,0.0,62,0.00,,,0.02,WeatherCatV1.10B1784,2013-01-07 22:39:00,
2013-01-07 17:44:00,26.4,15.5,30.34,NW,306,0.0,0.0,63,0.00,,,0.02,WeatherCatV1.10B1784,2013-01-07 22:44:00,
2013-01-07 17:49:00,26.1,15.6,30.34,NW,306,0.0,0.0,64,0.00,,,0.02,WeatherCatV1.10B1784,2013-01-07 22:49:00,
2013-01-07 17:54:00,26.3,14.7,30.34,NW,306,0.0,0.0,61,0.00,,,0.02,WeatherCatV1.10B1784,2013-01-07 22:54:00,
2013-01-07 17:59:00,26.2,15.7,30.35,NW,306,0.0,0.0,64,0.00,,,0.02,WeatherCatV1.10B1784,2013-01-07 22:59:00,
2013-01-07 18:04:00,25.8,14.6,30.35,NW,306,0.0,0.0,62,0.00,,,0.02,WeatherCatV1.10B1784,2013-01-07 23:04:00,
2013-01-07 18:09:00,25.9,14.7,30.35,NW,306,0.0,0.0,62,0.00,,,0.02,WeatherCatV1.10B1784,2013-01-07 23:09:00,
2013-01-07 18:14:00,25.7,14.9,30.35,NW,306,0.0,0.0,63,0.00,,,0.02,WeatherCatV1.10B1784,2013-01-07 23:14:00,
2013-01-07 18:19:00,25.6,14.8,30.36,NW,306,0.0,0.0,63,0.00,,,0.02,WeatherCatV1.10B1784,2013-01-07 23:19:00,
2013-01-07 18:24:00,25.4,14.9,30.35,NW,306,0.0,0.0,64,0.00,,,0.02,WeatherCatV1.10B1784,2013-01-07 23:24:00,
2013-01-07 18:29:00,25.2,15.1,30.35,NW,306,0.0,0.0,65,0.00,,,0.02,WeatherCatV1.10B1784,2013-01-07 23:29:00,
2013-01-07 18:34:00,25.0,14.6,30.34,NW,306,0.0,0.0,64,0.00,,,0.02,WeatherCatV1.10B1784,2013-01-07 23:34:00,
2013-01-07 18:39:00,25.1,14.7,30.35,NW,306,0.0,0.0,64,0.00,,,0.02,WeatherCatV1.10B1784,2013-01-07 23:39:00,
2013-01-07 18:44:00,25.2,14.4,30.35,NW,306,0.0,0.0,63,0.00,,,0.02,WeatherCatV1.10B1784,2013-01-07 23:44:00,
2013-01-07 18:49:00,25.2,14.8,30.35,NW,306,0.0,0.0,64,0.00,,,0.02,WeatherCatV1.10B1784,2013-01-07 23:49:00,
2013-01-07 18:54:00,24.5,15.5,30.35,NW,306,0.0,0.0,68,0.00,,,0.02,WeatherCatV1.10B1784,2013-01-07 23:54:00,
2013-01-07 18:59:00,24.0,15.0,30.35,NW,306,0.0,0.0,68,0.00,,,0.02,WeatherCatV1.10B1784,2013-01-07 23:59:00,
2013-01-07 19:04:00,23.5,14.5,30.35,NW,306,0.0,0.0,68,0.00,,,0.02,WeatherCatV1.10B1784,2013-01-08 00:04:00,
2013-01-07 19:09:00,23.4,14.4,30.35,NW,306,0.0,0.0,68,0.00,,,0.02,WeatherCatV1.10B1784,2013-01-08 00:09:00,
2013-01-07 19:14:00,23.4,14.4,30.35,NW,306,0.0,0.0,68,0.00,,,0.02,WeatherCatV1.10B1784,2013-01-08 00:14:00,
2013-01-07 19:19:00,23.3,14.0,30.35,NW,306,0.0,0.0,67,0.00,,,0.02,WeatherCatV1.10B1784,2013-01-08 00:19:00,
2013-01-07 19:24:00,23.3,14.3,30.35,NW,306,0.0,0.0,68,0.00,,,0.02,WeatherCatV1.10B1784,2013-01-08 00:24:00,
2013-01-07 19:29:00,23.0,14.0,30.35,NW,306,0.0,0.0,68,0.00,,,0.02,WeatherCatV1.10B1784,2013-01-08 00:29:00,
2013-01-07 19:34:00,22.7,14.4,30.35,NW,306,0.0,0.0,70,0.00,,,0.02,WeatherCatV1.10B1784,2013-01-08 00:34:00,
2013-01-07 19:39:00,22.8,13.8,30.35,NW,306,0.0,0.0,68,0.00,,,0.02,WeatherCatV1.10B1784,2013-01-08 00:39:00,
2013-01-07 19:44:00,23.5,13.8,30.34,NW,306,1.0,2.0,66,0.00,,,0.02,WeatherCatV1.10B1784,2013-01-08 00:44:00,
2013-01-07 19:49:00,24.2,14.2,30.34,NW,306,0.0,0.0,65,0.00,,,0.02,WeatherCatV1.10B1784,2013-01-08 00:49:00,
2013-01-07 19:54:00,24.4,14.4,30.34,NW,306,0.0,2.0,65,0.00,,,0.02,WeatherCatV1.10B1784,2013-01-08 00:54:00,
2013-01-07 19:59:00,24.3,14.3,30.34,NW,306,0.0,1.0,65,0.00,,,0.02,WeatherCatV1.10B1784,2013-01-08 00:59:00,
2013-01-07 20:04:00,24.4,14.7,30.34,NW,306,0.0,2.0,66,0.00,,,0.02,WeatherCatV1.10B1784,2013-01-08 01:04:00,
2013-01-07 20:09:00,25.0,14.9,30.34,NW,306,2.0,4.0,65,0.00,,,0.02,WeatherCatV1.10B1784,2013-01-08 01:09:00,
2013-01-07 20:14:00,25.5,15.4,30.34,NW,306,0.0,0.0,65,0.00,,,0.02,WeatherCatV1.10B1784,2013-01-08 01:14:00,
2013-01-07 20:19:00,25.6,15.5,30.34,NW,306,0.0,0.0,65,0.00,,,0.02,WeatherCatV1.10B1784,2013-01-08 01:19:00,
2013-01-07 20:24:00,25.6,15.1,30.34,NW,306,0.0,0.0,64,0.00,,,0.02,WeatherCatV1.10B1784,2013-01-08 01:24:00,
2013-01-07 20:29:00,25.1,15.0,30.34,NW,306,0.0,0.0,65,0.00,,,0.02,WeatherCatV1.10B1784,2013-01-08 01:29:00,
2013-01-07 20:34:00,24.6,15.2,30.34,NW,306,0.0,0.0,67,0.00,,,0.02,WeatherCatV1.10B1784,2013-01-08 01:34:00,
2013-01-07 20:39:00,24.2,15.5,30.34,NW,306,0.0,1.0,69,0.00,,,0.02,WeatherCatV1.10B1784,2013-01-08 01:39:00,
2013-01-07 20:44:00,24.1,15.8,30.34,NW,306,0.0,0.0,70,0.00,,,0.02,WeatherCatV1.10B1784,2013-01-08 01:44:00,
2013-01-07 20:49:00,23.8,15.1,30.34,NW,306,0.0,0.0,69,0.00,,,0.02,WeatherCatV1.10B1784,2013-01-08 01:49:00,
2013-01-07 20:54:00,23.4,15.1,30.34,NW,306,0.0,0.0,70,0.00,,,0.02,WeatherCatV1.10B1784,2013-01-08 01:54:00,
2013-01-07 20:59:00,23.1,15.1,30.34,NW,306,0.0,0.0,71,0.00,,,0.02,WeatherCatV1.10B1784,2013-01-08 01:59:00,
2013-01-07 21:04:00,22.7,14.7,30.34,NW,306,0.0,0.0,71,0.00,,,0.02,WeatherCatV1.10B1784,2013-01-08 02:04:00,
2013-01-07 21:09:00,22.3,14.7,30.34,NW,306,0.0,0.0,72,0.00,,,0.02,WeatherCatV1.10B1784,2013-01-08 02:09:00,
2013-01-07 21:14:00,22.0,14.7,30.34,NW,306,0.0,0.0,73,0.00,,,0.02,WeatherCatV1.10B1784,2013-01-08 02:14:00,
2013-01-07 21:19:00,21.8,14.8,30.34,NW,306,0.0,0.0,74,0.00,,,0.02,WeatherCatV1.10B1784,2013-01-08 02:19:00,
2013-01-07 21:24:00,21.5,14.8,30.34,NW,306,1.0,1.0,75,0.00,,,0.02,WeatherCatV1.10B1784,2013-01-08 02:24:00,
2013-01-07 21:29:00,21.5,15.1,30.35,NW,306,0.0,0.0,76,0.00,,,0.02,WeatherCatV1.10B1784,2013-01-08 02:29:00,
2013-01-07 21:34:00,21.5,15.1,30.35,NW,306,0.0,0.0,76,0.00,,,0.02,WeatherCatV1.10B1784,2013-01-08 02:34:00,
2013-01-07 21:39:00,22.2,15.8,30.35,NW,306,0.0,0.0,76,0.00,,,0.02,WeatherCatV1.10B1784,2013-01-08 02:39:00,
2013-01-07 21:44:00,22.7,16.0,30.34,NW,306,0.0,0.0,75,0.00,,,0.02,WeatherCatV1.10B1784,2013-01-08 02:44:00,
2013-01-07 21:49:00,22.9,15.9,30.34,NW,306,0.0,1.0,74,0.00,,,0.02,WeatherCatV1.10B1784,2013-01-08 02:49:00,
2013-01-07 21:54:00,23.2,16.2,30.34,NW,306,0.0,0.0,74,0.00,,,0.02,WeatherCatV1.10B1784,2013-01-08 02:54:00,
2013-01-07 21:59:00,23.1,16.1,30.34,NW,306,0.0,0.0,74,0.00,,,0.02,WeatherCatV1.10B1784,2013-01-08 02:59:00,
2013-01-07 22:04:00,22.9,15.9,30.34,NW,306,0.0,0.0,74,0.00,,,0.02,WeatherCatV1.10B1784,2013-01-08 03:04:00,
2013-01-07 22:09:00,22.5,15.5,30.34,NW,306,0.0,0.0,74,0.00,,,0.02,WeatherCatV1.10B1784,2013-01-08 03:09:00,
2013-01-07 22:14:00,22.4,15.7,30.34,NW,306,0.0,0.0,75,0.00,,,0.02,WeatherCatV1.10B1784,2013-01-08 03:14:00,
2013-01-07 22:19:00,22.5,15.8,30.34,NW,306,0.0,2.0,75,0.00,,,0.02,WeatherCatV1.10B1784,2013-01-08 03:19:00,
2013-01-07 22:24:00,22.4,15.7,30.34,NW,306,0.0,0.0,75,0.00,,,0.02,WeatherCatV1.10B1784,2013-01-08 03:24:00,
2013-01-07 22:29:00,22.2,15.5,30.34,NW,306,0.0,0.0,75,0.00,,,0.02,WeatherCatV1.10B1784,2013-01-08 03:29:00,
2013-01-07 22:34:00,22.1,15.7,30.34,NW,306,0.0,0.0,76,0.00,,,0.02,WeatherCatV1.10B1784,2013-01-08 03:34:00,
2013-01-07 22:39:00,22.4,16.0,30.34,NW,306,0.0,0.0,76,0.00,,,0.02,WeatherCatV1.10B1784,2013-01-08 03:39:00,
2013-01-07 22:44:00,22.5,16.1,30.34,NW,306,0.0,0.0,76,0.00,,,0.02,WeatherCatV1.10B1784,2013-01-08 03:44:00,
2013-01-07 22:49:00,22.3,15.9,30.34,NW,306,0.0,0.0,76,0.00,,,0.02,WeatherCatV1.10B1784,2013-01-08 03:49:00,
2013-01-07 22:55:00,22.4,16.3,30.34,NW,306,0.0,0.0,77,0.00,,,0.02,WeatherCatV1.10B1784,2013-01-08 03:55:00,
2013-01-07 23:00:00,22.5,16.1,30.34,NW,306,0.0,0.0,76,0.00,,,0.02,WeatherCatV1.10B1784,2013-01-08 04:00:00,
2013-01-07 23:05:00,22.4,16.0,30.34,NW,306,0.0,0.0,76,0.00,,,0.02,WeatherCatV1.10B1784,2013-01-08 04:05:00,
2013-01-07 23:10:00,22.5,16.1,30.33,NW,306,0.0,0.0,76,0.00,,,0.02,WeatherCatV1.10B1784,2013-01-08 04:10:00,
2013-01-07 23:15:00,22.6,16.2,30.33,NW,306,0.0,0.0,76,0.00,,,0.02,WeatherCatV1.10B1784,2013-01-08 04:15:00,
2013-01-07 23:20:00,23.0,16.6,30.33,NW,306,0.0,0.0,76,0.00,,,0.02,WeatherCatV1.10B1784,2013-01-08 04:20:00,
2013-01-07 23:25:00,23.1,16.4,30.33,NW,306,0.0,0.0,75,0.00,,,0.02,WeatherCatV1.10B1784,2013-01-08 04:25:00,
2013-01-07 23:30:00,22.7,16.0,30.33,NW,306,1.0,2.0,75,0.00,,,0.02,WeatherCatV1.10B1784,2013-01-08 04:30:00,
2013-01-07 23:35:00,22.4,15.7,30.33,NW,306,0.0,0.0,75,0.00,,,0.02,WeatherCatV1.10B1784,2013-01-08 04:35:00,
2013-01-07 23:40:00,22.2,15.8,30.33,NW,306,0.0,1.0,76,0.00,,,0.02,WeatherCatV1.10B1784,2013-01-08 04:40:00,
2013-01-07 23:45:00,22.1,16.0,30.32,NW,306,0.0,0.0,77,0.00,,,0.02,WeatherCatV1.10B1784,2013-01-08 04:45:00,
2013-01-07 23:50:00,22.3,16.2,30.32,NW,306,0.0,1.0,77,0.00,,,0.02,WeatherCatV1.10B1784,2013-01-08 04:50:00,
2013-01-07 23:55:00,22.7,16.6,30.32,NW,306,0.0,0.0,77,0.00,,,0.02,WeatherCatV1.10B1784,2013-01-08 04:55:00,